CZ-4C R/B, 47537

Orbit data source: Space-Track

CZ-4C R/B, 47537 is space debris in LEO originally from a launch on Fri, 29 Jan 2021 UTC launched from the Jiuquan Satellite Launch Center, China (JSC). Debris objects in space refer to the collection of defunct objects orbiting the Earth. Examples of debris include non-operational satellites, rocket bodies, and fragments generated from explosions, collisions, or faulty payload assembly.

Loading next visibility...
Identifier
47537, 2021-007F
Orbit
LEO
Country
Flag of CNCN / PRC
Related business
Manufacturer
SAST
Mission
Spacecraft
Bus & Motor
CZ-4 STAGE 3, Unknown motor
Mass
~1,000 kg wet, ~1,000 kg dry
Launch date (UTC)
2021-01-29 (5 years ago)
Launch vehicle
Unknown
Launch site
Jiuquan Satellite Launch Center, China (JSC)
Object type
Payload
Rocket body
Debris
Shape & HBR
Cyl, 2.5 m
Radar Cross Section
14.536 m², Large (>1 m²)

Expand to show TLE details & history
Last TLE update: 2 days ago

TLE from 2 days ago
0 CZ-4C R/B
1 47537U 21007F   26171.41122763 -.00000083  00000-0  10632-4 0  9997
2 47537  63.4490 299.1998 0302918   1.8380 358.3696 13.68046199269233
Epoch: 2026-06-20T09:52Z
TLE epoch observation values (Epoch: 2026-06-20T09:52:10.067Z)
Latitude
-0.00003°
Longitude
-117.4684°
Altitude
784.764 km
Speed
7.574 km/s
True Right ascension
19h 56m 47s
True Declination
0° 00' 00"
Sunlit
Object was in full shadow at epoch
Visualization orbit readout
Latitude
Unknown
Longitude
Unknown
Altitude
Unknown
Speed
Unknown
Apparent Right ascension
Unknown
Apparent Declination
Unknown
Sunlit
N/A
Visualization observer readout
Local Sidereal Time
21:26:08
Azimuth
Unknown
Elevation
Unknown
Doppler factor
Unknown
Orbital elements
Apogee altitude
1,229.063 km
Perigee altitude
781.742 km
Semi-major axis
7,383.539 km
Eccentricity
0.03029
Inclination
63.449°
RAAN
299.1998°
Arg. of periapsis
1.838°
True anomaly
358.26696°
Mean anomaly
358.3696°
Eccentric anomaly
358.31868°
Mean motion
3.42095 °/min
Orbital period
105.23 mins
BSTAR
0.000010632
Loading maneuver chart data...
Computing Atmospheric mass density...
Loading historical data...
Loading historical data...
Loading historical data...
Loading historical data...
Loading historical data...
Loading historical data...
Loading historical data...
Other satellites on launch #7 in the year 2021 (2021-01-29 UTC)

Documentation

Showing up to 5 results
|